EW8130 Weather Reports


Display with metric or nautical units.
time (UTC)temp
F
wind
direction
speed
MPH
gust
MPH
rain 1hr
in
rain 24hr
in
rain mn
in
humidity
%
barometer
mb
20260905163017 93 222 0.0 1.0 0.00 0.00 0.00 53 993.6
20260905161516 94 56 1.0 6.0 0.00 0.00 0.00 51 993.6
20260905160026 93 272 0.0 1.0 0.00 0.00 0.00 56 993.6
20260905154508 92 359 0.0 1.0 0.00 0.00 0.00 59 993.6
20260905153005 90 359 0.0 1.0 0.00 0.00 0.00 62 993.5
20260905151601 89 359 0.0 1.0 0.00 0.00 0.00 65 993.6
20260905150057 87 143 0.0 1.0 0.00 0.00 0.00 67 993.4
20260905144554 87 141 1.0 8.0 0.00 0.00 0.00 69 993.3
20260905143051 86 145 0.0 1.0 0.00 0.00 0.00 70 993.4
20260905141608 84 177 0.0 1.0 0.00 0.00 0.00 73 993.5
20260905140059 83 138 0.0 1.0 0.00 0.00 0.00 74 993.4
20260905134603 82 359 0.0 1.0 0.00 0.00 0.00 75 993.4
20260905133054 81 138 0.0 1.0 0.00 0.00 0.00 77 993.2
20260905131554 80 73 0.0 2.0 0.00 0.00 0.00 78 993.0
20260905130042 79 87 0.0 1.0 0.00 0.00 0.00 79 992.8
20260905124542 78 77 0.0 1.0 0.00 0.00 0.00 80 992.7
20260905123040 78 155 0.0 1.0 0.00 0.00 0.00 81 992.7
20260905121540 78 123 0.0 1.0 0.00 0.00 0.00 81 992.6
20260905120039 78 42 0.0 0.0 0.00 0.00 0.00 81 992.7
20260905114605 78 265 0.0 1.0 0.00 0.00 0.00 80 992.5
20260905113037 78 65 0.0 1.0 0.00 0.00 0.00 80 992.6
20260905111542 78 45 0.0 0.0 0.00 0.00 0.00 79 992.6
20260905110034 79 118 0.0 1.0 0.00 0.00 0.00 79 992.4
20260905104534 79 359 0.0 1.0 0.00 0.00 0.00 78 992.2
20260905103036 79 142 0.0 1.0 0.00 0.00 0.00 77 992.3
20260905101534 79 102 0.0 1.0 0.00 0.00 0.00 78 992.2
20260905100036 79 129 0.0 1.0 0.00 0.00 0.00 79 992.3
20260905094531 79 359 0.0 1.0 0.00 0.00 0.00 78 992.1
20260905093032 79 359 0.0 1.0 0.00 0.00 0.00 77 992.1
20260905091528 80 359 0.0 1.0 0.00 0.00 0.00 76 992.2
20260905090025 80 189 0.0 1.0 0.00 0.00 0.00 75 992.2
20260905084522 81 130 0.0 1.0 0.00 0.00 0.00 75 991.9
20260905083021 81 89 0.0 1.0 0.00 0.00 0.00 74 991.6
20260905081520 82 93 0.0 1.0 0.00 0.00 0.00 74 991.6
20260905080022 82 126 0.0 1.0 0.00 0.00 0.00 74 991.7
20260905074518 82 88 0.0 1.0 0.00 0.00 0.00 73 991.8
20260905073021 82 125 0.0 1.0 0.00 0.00 0.00 73 992.0
20260905071514 83 112 0.0 1.0 0.00 0.00 0.00 73 992.3
20260905070014 83 132 0.0 1.0 0.00 0.00 0.00 72 992.3
20260905064514 83 140 0.0 1.0 0.00 0.00 0.00 72 992.4
20260905063011 83 110 0.0 1.0 0.00 0.00 0.00 72 992.3
20260905061509 83 145 0.0 1.0 0.00 0.00 0.00 71 992.3
20260905060013 84 171 0.0 1.0 0.00 0.00 0.00 69 992.3
20260905054505 84 127 0.0 1.0 0.00 0.00 0.00 69 992.1
20260905053003 85 96 0.0 1.0 0.00 0.00 0.00 68 992.0
20260905051500 85 94 0.0 1.0 0.00 0.00 0.00 68 991.9
20260905050107 85 100 0.0 1.0 0.00 0.00 0.00 67 991.9
20260905044601 86 120 0.0 1.0 0.00 0.00 0.00 67 991.9
20260905043058 86 100 0.0 2.0 0.00 0.00 0.00 66 991.9
20260905041557 87 106 0.0 6.0 0.00 0.00 0.00 65 992.0
20260905040058 87 111 0.0 2.0 0.00 0.00 0.00 64 992.1
20260905034609 87 68 0.0 2.0 0.00 0.00 0.00 63 992.1
20260905033106 88 74 0.0 6.0 0.00 0.00 0.00 61 992.0
20260905031608 88 78 0.0 2.0 0.00 0.00 0.00 60 992.0
20260905030055 88 69 0.0 2.0 0.00 0.00 0.00 60 991.9
20260905024554 89 69 0.0 2.0 0.00 0.00 0.00 59 991.7
20260905023125 89 61 0.0 2.0 0.00 0.00 0.00 58 991.5
20260905021554 89 29 0.0 2.0 0.00 0.00 0.00 57 991.3
20260905020053 90 43 0.0 1.0 0.00 0.00 0.00 57 991.0
20260905014555 90 45 0.0 2.0 0.00 0.00 0.00 57 990.8
20260905013052 91 35 0.0 2.0 0.00 0.00 0.00 56 990.7
20260905011557 91 48 0.0 2.0 0.00 0.00 0.00 55 990.7
20260905010051 92 15 0.0 2.0 0.00 0.00 0.00 54 990.5
20260905004551 93 38 0.0 2.0 0.00 0.00 0.00 52 990.4
20260905003050 93 49 0.0 9.0 0.00 0.00 0.00 51 990.3
20260905001550 94 58 3.0 10.0 0.00 0.00 0.00 50 990.1
20260904234548 95 74 4.0 12.0 0.00 0.00 0.00 48 990.0
20260904233050 95 42 0.0 10.0 0.00 0.00 0.00 48 990.0
20260904231549 95 359 0.0 10.0 0.00 0.00 0.00 47 989.9
20260904230049 95 43 3.0 12.0 0.00 0.00 0.00 48 990.0
20260904224546 95 85 0.0 9.0 0.00 0.00 0.00 49 990.1
20260904223045 95 359 0.0 12.0 0.00 0.00 0.00 49 990.2
20260904221545 95 42 2.0 9.0 0.00 0.00 0.00 50 990.1
20260904220107 96 41 1.0 10.0 0.00 0.00 0.00 49 990.2
20260904214543 97 36 2.0 11.0 0.00 0.00 0.00 49 990.5
20260904213039 97 116 0.0 5.0 0.00 0.00 0.00 49 990.5
20260904211549 96 53 2.0 7.0 0.00 0.00 0.00 49 990.6
20260904210039 96 77 1.0 10.0 0.00 0.00 0.00 49 990.7
20260904204545 96 262 0.0 8.0 0.00 0.00 0.00 50 990.9
20260904203042 96 127 0.0 10.0 0.00 0.00 0.00 50 991.0
20260904201534 96 36 2.0 10.0 0.00 0.00 0.00 48 991.2
20260904200036 98 38 0.0 5.0 0.00 0.00 0.00 46 991.5
20260904194545 98 359 0.0 1.0 0.00 0.00 0.00 47 991.7
20260904193023 97 86 0.0 3.0 0.00 0.00 0.00 48 991.9
20260904191536 95 38 0.0 2.0 0.00 0.00 0.00 50 992.0
20260904190019 95 62 0.0 3.0 0.00 0.00 0.00 52 992.2
20260904184518 94 54 0.0 2.0 0.00 0.00 0.00 52 992.3
20260904183017 95 61 6.0 9.0 0.00 0.00 0.00 53 992.5
20260904181515 94 122 0.0 3.0 0.00 0.00 0.00 53 992.7
20260904180012 94 173 0.0 2.0 0.00 0.00 0.00 55 993.0
20260904174512 93 91 0.0 5.0 0.00 0.00 0.00 55 993.2
20260904173010 93 102 0.0 4.0 0.00 0.00 0.00 55 993.4
20260904171506 92 106 4.0 10.0 0.00 0.00 0.00 56 993.5
20260904170005 92 43 4.0 10.0 0.00 0.00 0.00 55 993.7
20260904164503 91 50 2.0 8.0 0.00 0.00 0.00 59 993.7